Time,TemperatureF,DewpointF,PressureIn,WindDirection,WindDirectionDegrees,WindSpeedMPH,WindSpeedGustMPH,Humidity,HourlyPrecipIn,Conditions,Clouds,dailyrainin,SoftwareType,DateUTC
2013-09-11 00:01:00,66.7,46.9,29.21,North,0,0.0,0.0,49,0.00,,,0.00,meteohub,2013-09-11 04:01:00,
2013-09-11 00:02:00,66.7,46.9,29.21,North,0,0.0,0.0,49,0.00,,,0.00,meteohub,2013-09-11 04:02:00,
2013-09-11 00:07:00,66.7,46.9,29.21,North,0,0.0,0.0,49,0.00,,,0.00,meteohub,2013-09-11 04:07:00,
2013-09-11 00:12:00,66.7,46.9,29.23,North,0,0.0,0.0,49,0.00,,,0.00,meteohub,2013-09-11 04:12:00,
2013-09-11 00:17:00,66.6,46.8,29.23,North,0,0.0,0.0,49,0.00,,,0.00,meteohub,2013-09-11 04:17:00,
2013-09-11 00:22:00,66.4,46.6,29.23,North,0,0.0,0.0,49,0.00,,,0.00,meteohub,2013-09-11 04:22:00,
2013-09-11 00:27:00,66.2,46.4,29.23,North,0,0.0,0.0,49,0.00,,,0.00,meteohub,2013-09-11 04:27:00,
2013-09-11 00:32:00,66.0,46.4,29.25,North,0,0.0,0.0,49,0.00,,,0.00,meteohub,2013-09-11 04:32:00,
2013-09-11 00:37:00,66.0,46.4,29.25,North,0,0.0,0.0,49,0.00,,,0.00,meteohub,2013-09-11 04:37:00,
2013-09-11 00:42:00,65.8,46.2,29.25,North,0,0.0,0.0,49,0.00,,,0.00,meteohub,2013-09-11 04:42:00,
2013-09-11 00:47:00,65.8,46.2,29.25,North,0,0.0,0.0,49,0.00,,,0.00,meteohub,2013-09-11 04:47:00,
2013-09-11 00:52:00,65.7,46.0,29.23,North,0,0.0,0.0,49,0.00,,,0.00,meteohub,2013-09-11 04:52:00,
2013-09-11 00:57:00,65.7,46.0,29.23,North,0,0.0,0.0,49,0.00,,,0.00,meteohub,2013-09-11 04:57:00,
2013-09-11 01:02:00,65.7,46.0,29.23,North,0,0.0,0.0,49,0.00,,,0.00,meteohub,2013-09-11 05:02:00,
2013-09-11 01:07:00,65.7,46.0,29.23,North,0,0.0,0.0,49,0.00,,,0.00,meteohub,2013-09-11 05:07:00,
2013-09-11 01:13:00,65.7,46.0,29.23,North,0,0.0,0.0,49,0.00,,,0.00,meteohub,2013-09-11 05:13:00,
2013-09-11 01:18:00,65.7,46.0,29.23,North,0,0.0,0.0,49,0.00,,,0.00,meteohub,2013-09-11 05:18:00,
2013-09-11 01:23:00,65.7,46.0,29.23,North,0,0.0,0.0,49,0.00,,,0.00,meteohub,2013-09-11 05:23:00,
2013-09-11 01:28:00,65.7,46.0,29.23,North,0,0.0,0.0,49,0.00,,,0.00,meteohub,2013-09-11 05:28:00,
2013-09-11 01:33:00,65.5,45.9,29.23,North,0,0.0,0.0,49,0.00,,,0.00,meteohub,2013-09-11 05:33:00,
2013-09-11 01:38:00,65.5,45.9,29.23,North,0,0.0,0.0,49,0.00,,,0.00,meteohub,2013-09-11 05:38:00,
2013-09-11 01:43:00,65.5,45.9,29.23,North,0,0.0,0.0,49,0.00,,,0.00,meteohub,2013-09-11 05:43:00,
2013-09-11 01:48:00,65.5,45.9,29.23,North,0,0.0,0.0,49,0.00,,,0.00,meteohub,2013-09-11 05:48:00,
2013-09-11 01:53:00,65.5,45.9,29.22,North,0,0.0,0.0,49,0.00,,,0.00,meteohub,2013-09-11 05:53:00,
2013-09-11 01:58:00,65.5,45.9,29.22,North,0,0.0,0.0,49,0.00,,,0.00,meteohub,2013-09-11 05:58:00,
2013-09-11 02:03:00,65.5,45.9,29.22,North,0,0.0,0.0,49,0.00,,,0.00,meteohub,2013-09-11 06:03:00,
2013-09-11 02:08:00,65.5,45.9,29.22,North,0,0.0,0.0,49,0.00,,,0.00,meteohub,2013-09-11 06:08:00,
2013-09-11 02:13:00,65.3,45.7,29.23,North,0,0.0,0.0,49,0.00,,,0.00,meteohub,2013-09-11 06:13:00,
2013-09-11 02:18:00,65.3,45.7,29.23,North,0,0.0,0.0,49,0.00,,,0.00,meteohub,2013-09-11 06:18:00,
2013-09-11 02:23:00,65.3,45.7,29.23,North,0,0.0,0.0,49,0.00,,,0.00,meteohub,2013-09-11 06:23:00,
2013-09-11 02:28:00,65.1,45.5,29.23,North,0,0.0,0.0,49,0.00,,,0.00,meteohub,2013-09-11 06:28:00,
2013-09-11 02:33:00,65.1,45.5,29.22,North,0,0.0,0.0,49,0.00,,,0.00,meteohub,2013-09-11 06:33:00,
2013-09-11 02:38:00,64.9,45.3,29.22,North,0,0.0,0.0,49,0.00,,,0.00,meteohub,2013-09-11 06:38:00,
2013-09-11 02:43:00,64.9,45.3,29.22,North,0,0.0,0.0,49,0.00,,,0.00,meteohub,2013-09-11 06:43:00,
2013-09-11 02:48:00,65.1,45.5,29.22,North,0,0.0,0.0,49,0.00,,,0.00,meteohub,2013-09-11 06:48:00,
2013-09-11 02:53:00,64.9,45.3,29.22,North,0,0.0,0.0,49,0.00,,,0.00,meteohub,2013-09-11 06:53:00,
2013-09-11 02:58:00,64.9,45.3,29.22,North,0,0.0,0.0,49,0.00,,,0.00,meteohub,2013-09-11 06:58:00,
2013-09-11 03:03:00,64.9,45.3,29.22,North,0,0.0,0.0,49,0.00,,,0.00,meteohub,2013-09-11 07:03:00,
2013-09-11 03:08:00,64.9,45.3,29.22,North,0,0.0,0.0,49,0.00,,,0.00,meteohub,2013-09-11 07:08:00,
2013-09-11 03:13:00,64.9,45.3,29.23,North,0,0.0,0.0,49,0.00,,,0.00,meteohub,2013-09-11 07:13:00,
2013-09-11 03:18:00,64.9,45.3,29.23,North,0,0.0,0.0,49,0.00,,,0.00,meteohub,2013-09-11 07:18:00,
2013-09-11 03:23:00,64.9,45.3,29.23,North,0,0.0,0.0,49,0.00,,,0.00,meteohub,2013-09-11 07:23:00,
2013-09-11 03:29:00,64.9,45.3,29.23,North,0,0.0,0.0,49,0.00,,,0.00,meteohub,2013-09-11 07:29:00,
2013-09-11 03:34:00,64.9,45.3,29.22,North,0,0.0,0.0,49,0.00,,,0.00,meteohub,2013-09-11 07:34:00,
2013-09-11 03:39:00,64.9,45.3,29.22,North,0,0.0,0.0,49,0.00,,,0.00,meteohub,2013-09-11 07:39:00,
2013-09-11 03:44:00,64.9,45.3,29.22,North,0,0.0,0.0,49,0.00,,,0.00,meteohub,2013-09-11 07:44:00,
2013-09-11 03:49:00,64.9,45.3,29.22,North,0,0.0,0.0,49,0.00,,,0.00,meteohub,2013-09-11 07:49:00,
2013-09-11 03:54:00,64.9,45.3,29.21,North,0,0.0,0.0,49,0.00,,,0.00,meteohub,2013-09-11 07:54:00,
2013-09-11 03:59:00,64.9,45.3,29.21,North,0,0.0,0.0,49,0.00,,,0.00,meteohub,2013-09-11 07:59:00,
2013-09-11 04:04:00,64.9,45.3,29.21,North,0,0.0,0.0,49,0.00,,,0.00,meteohub,2013-09-11 08:04:00,
2013-09-11 04:09:00,64.9,45.3,29.21,North,0,0.0,0.0,49,0.00,,,0.00,meteohub,2013-09-11 08:09:00,
2013-09-11 04:15:00,64.9,45.3,29.21,North,0,0.0,0.0,49,0.00,,,0.00,meteohub,2013-09-11 08:15:00,
2013-09-11 04:20:00,64.9,45.3,29.21,North,0,0.0,0.0,49,0.00,,,0.00,meteohub,2013-09-11 08:20:00,
2013-09-11 04:25:00,64.9,45.3,29.21,North,0,0.0,0.0,49,0.00,,,0.00,meteohub,2013-09-11 08:25:00,
2013-09-11 04:30:00,64.9,45.3,29.21,North,0,0.0,0.0,49,0.00,,,0.00,meteohub,2013-09-11 08:30:00,
2013-09-11 04:35:00,64.8,45.1,29.21,North,0,0.0,0.0,49,0.00,,,0.00,meteohub,2013-09-11 08:35:00,
2013-09-11 04:40:00,64.8,45.1,29.21,North,0,0.0,0.0,49,0.00,,,0.00,meteohub,2013-09-11 08:40:00,
2013-09-11 04:45:00,64.8,45.1,29.21,North,0,0.0,0.0,49,0.00,,,0.00,meteohub,2013-09-11 08:45:00,
2013-09-11 04:50:00,64.8,45.1,29.21,North,0,0.0,0.0,49,0.00,,,0.00,meteohub,2013-09-11 08:50:00,
2013-09-11 04:55:00,64.8,45.1,29.21,North,0,0.0,0.0,49,0.00,,,0.00,meteohub,2013-09-11 08:55:00,
2013-09-11 05:00:00,64.6,45.0,29.21,North,0,0.0,0.0,49,0.00,,,0.00,meteohub,2013-09-11 09:00:00,
2013-09-11 05:05:00,64.6,45.0,29.21,North,0,0.0,0.0,49,0.00,,,0.00,meteohub,2013-09-11 09:05:00,
2013-09-11 05:10:00,64.6,45.0,29.21,North,0,0.0,0.0,49,0.00,,,0.00,meteohub,2013-09-11 09:10:00,
2013-09-11 05:15:00,64.6,45.5,29.21,North,0,0.0,0.0,50,0.00,,,0.00,meteohub,2013-09-11 09:15:00,
2013-09-11 05:20:00,64.6,45.5,29.21,North,0,0.0,0.0,50,0.00,,,0.00,meteohub,2013-09-11 09:20:00,
2013-09-11 05:25:00,64.4,45.3,29.21,North,0,0.0,0.0,50,0.00,,,0.00,meteohub,2013-09-11 09:25:00,
2013-09-11 05:30:00,64.4,45.3,29.21,North,0,0.0,0.0,50,0.00,,,0.00,meteohub,2013-09-11 09:30:00,
2013-09-11 05:35:00,64.6,45.5,29.21,North,0,0.0,0.0,50,0.00,,,0.00,meteohub,2013-09-11 09:35:00,
2013-09-11 05:40:00,64.4,45.3,29.21,North,0,0.0,0.0,50,0.00,,,0.00,meteohub,2013-09-11 09:40:00,
2013-09-11 05:45:00,64.4,45.3,29.21,North,0,0.0,0.0,50,0.00,,,0.00,meteohub,2013-09-11 09:45:00,
2013-09-11 05:50:00,64.4,45.3,29.21,North,0,0.0,0.0,50,0.00,,,0.00,meteohub,2013-09-11 09:50:00,
2013-09-11 05:55:00,64.4,45.3,29.20,North,0,0.0,0.0,50,0.00,,,0.00,meteohub,2013-09-11 09:55:00,
2013-09-11 06:00:00,64.6,45.5,29.20,North,0,0.0,0.0,50,0.00,,,0.00,meteohub,2013-09-11 10:00:00,
2013-09-11 06:05:00,64.4,45.3,29.20,North,0,0.0,0.0,50,0.00,,,0.00,meteohub,2013-09-11 10:05:00,
2013-09-11 06:10:00,64.6,45.5,29.20,North,0,0.0,0.0,50,0.00,,,0.00,meteohub,2013-09-11 10:10:00,
2013-09-11 06:15:00,64.4,45.3,29.21,North,0,0.0,0.0,50,0.00,,,0.00,meteohub,2013-09-11 10:15:00,
2013-09-11 06:20:00,64.4,45.3,29.21,North,0,0.0,0.0,50,0.00,,,0.00,meteohub,2013-09-11 10:20:00,
2013-09-11 06:25:00,64.4,45.3,29.21,North,0,0.0,0.0,50,0.00,,,0.00,meteohub,2013-09-11 10:25:00,
2013-09-11 06:30:00,64.6,45.5,29.21,North,0,0.0,0.0,50,0.00,,,0.00,meteohub,2013-09-11 10:30:00,
2013-09-11 06:35:00,64.4,45.3,29.21,North,0,0.0,0.0,50,0.00,,,0.00,meteohub,2013-09-11 10:35:00,
2013-09-11 06:40:00,64.4,45.3,29.21,North,0,0.0,0.0,50,0.00,,,0.00,meteohub,2013-09-11 10:40:00,
2013-09-11 06:45:00,64.4,45.3,29.21,North,0,0.0,0.0,50,0.00,,,0.00,meteohub,2013-09-11 10:45:00,
2013-09-11 06:50:00,64.4,45.3,29.21,North,0,0.0,0.0,50,0.00,,,0.00,meteohub,2013-09-11 10:50:00,
2013-09-11 06:55:00,64.4,45.3,29.22,North,0,0.0,0.0,50,0.00,,,0.00,meteohub,2013-09-11 10:55:00,
2013-09-11 07:00:00,64.6,45.5,29.22,North,0,0.0,0.0,50,0.00,,,0.00,meteohub,2013-09-11 11:00:00,
2013-09-11 07:05:00,64.4,45.3,29.22,North,0,0.0,0.0,50,0.00,,,0.00,meteohub,2013-09-11 11:05:00,
2013-09-11 07:10:00,64.6,45.5,29.22,North,0,0.0,0.0,50,0.00,,,0.00,meteohub,2013-09-11 11:10:00,
2013-09-11 07:15:00,64.6,45.5,29.22,North,0,0.0,0.0,50,0.00,,,0.00,meteohub,2013-09-11 11:15:00,
2013-09-11 07:20:00,64.6,45.5,29.22,North,0,0.0,0.0,50,0.00,,,0.00,meteohub,2013-09-11 11:20:00,
2013-09-11 07:25:00,64.6,45.5,29.22,North,0,0.0,0.0,50,0.00,,,0.00,meteohub,2013-09-11 11:25:00,
2013-09-11 07:30:00,64.6,45.5,29.22,North,0,0.0,0.0,50,0.00,,,0.00,meteohub,2013-09-11 11:30:00,
2013-09-11 07:35:00,64.6,45.5,29.21,North,0,0.0,0.0,50,0.00,,,0.00,meteohub,2013-09-11 11:35:00,
2013-09-11 07:40:00,64.8,45.7,29.21,North,0,0.0,0.0,50,0.00,,,0.00,meteohub,2013-09-11 11:40:00,
2013-09-11 07:46:00,64.8,45.7,29.21,North,0,0.0,0.0,50,0.00,,,0.00,meteohub,2013-09-11 11:46:00,
2013-09-11 07:51:00,64.6,45.5,29.21,North,0,0.0,0.0,50,0.00,,,0.00,meteohub,2013-09-11 11:51:00,
2013-09-11 07:56:00,64.6,45.5,29.23,North,0,0.0,0.0,50,0.00,,,0.00,meteohub,2013-09-11 11:56:00,
2013-09-11 08:01:00,64.6,45.5,29.23,North,0,0.0,0.0,50,0.00,,,0.00,meteohub,2013-09-11 12:01:00,
2013-09-11 08:06:00,64.6,45.5,29.23,North,0,0.0,0.0,50,0.00,,,0.00,meteohub,2013-09-11 12:06:00,
2013-09-11 08:11:00,64.8,45.7,29.23,North,0,0.0,0.0,50,0.00,,,0.00,meteohub,2013-09-11 12:11:00,
2013-09-11 08:16:00,64.9,45.9,29.22,North,0,0.0,0.0,50,0.00,,,0.00,meteohub,2013-09-11 12:16:00,
2013-09-11 08:21:00,64.8,45.7,29.22,North,0,0.0,0.0,50,0.00,,,0.00,meteohub,2013-09-11 12:21:00,
2013-09-11 08:26:00,64.8,45.7,29.22,North,0,0.0,0.0,50,0.00,,,0.00,meteohub,2013-09-11 12:26:00,
2013-09-11 08:31:00,64.9,45.9,29.22,North,0,0.0,0.0,50,0.00,,,0.00,meteohub,2013-09-11 12:31:00,
2013-09-11 08:37:00,64.9,45.9,29.22,North,0,0.0,0.0,50,0.00,,,0.00,meteohub,2013-09-11 12:37:00,
2013-09-11 08:42:00,64.9,45.9,29.22,North,0,0.0,0.0,50,0.00,,,0.00,meteohub,2013-09-11 12:42:00,
2013-09-11 08:47:00,65.3,46.2,29.22,North,0,0.0,0.0,50,0.00,,,0.00,meteohub,2013-09-11 12:47:00,
2013-09-11 08:52:00,65.3,46.2,29.23,North,0,0.0,0.0,50,0.00,,,0.00,meteohub,2013-09-11 12:52:00,
2013-09-11 08:57:00,65.7,46.6,29.23,North,0,0.0,0.0,50,0.00,,,0.00,meteohub,2013-09-11 12:57:00,
2013-09-11 09:02:00,65.8,46.8,29.23,North,0,0.0,0.0,50,0.00,,,0.00,meteohub,2013-09-11 13:02:00,
2013-09-11 09:07:00,66.0,46.8,29.23,North,0,0.0,0.0,50,0.00,,,0.00,meteohub,2013-09-11 13:07:00,
2013-09-11 09:12:00,66.2,46.9,29.23,North,0,0.0,0.0,50,0.00,,,0.00,meteohub,2013-09-11 13:12:00,
2013-09-11 09:17:00,66.4,47.1,29.23,North,0,0.0,0.0,50,0.00,,,0.00,meteohub,2013-09-11 13:17:00,
2013-09-11 09:22:00,66.4,47.1,29.23,North,0,0.0,0.0,50,0.00,,,0.00,meteohub,2013-09-11 13:22:00,
2013-09-11 09:27:00,66.6,47.3,29.23,North,0,0.0,0.0,50,0.00,,,0.00,meteohub,2013-09-11 13:27:00,
2013-09-11 09:32:00,66.7,47.5,29.23,North,0,0.0,0.0,50,0.00,,,0.00,meteohub,2013-09-11 13:32:00,
2013-09-11 09:37:00,66.9,47.7,29.23,North,0,0.0,0.0,50,0.00,,,0.00,meteohub,2013-09-11 13:37:00,
2013-09-11 09:42:00,67.1,47.3,29.23,North,0,0.0,0.0,49,0.00,,,0.00,meteohub,2013-09-11 13:42:00,
2013-09-11 09:47:00,67.3,47.5,29.23,North,0,0.0,0.0,49,0.00,,,0.00,meteohub,2013-09-11 13:47:00,
2013-09-11 09:52:00,67.3,47.5,29.23,North,0,0.0,0.0,49,0.00,,,0.00,meteohub,2013-09-11 13:52:00,
2013-09-11 09:57:00,67.5,47.7,29.23,North,0,0.0,0.0,49,0.00,,,0.00,meteohub,2013-09-11 13:57:00,
2013-09-11 10:02:00,67.5,47.7,29.23,North,0,0.0,0.0,49,0.00,,,0.00,meteohub,2013-09-11 14:02:00,
2013-09-11 10:07:00,67.6,47.8,29.23,North,0,0.0,0.0,49,0.00,,,0.00,meteohub,2013-09-11 14:07:00,
2013-09-11 10:12:00,67.8,48.0,29.23,North,0,0.0,0.0,49,0.00,,,0.00,meteohub,2013-09-11 14:12:00,
2013-09-11 10:17:00,68.2,48.4,29.23,North,0,0.0,0.0,49,0.00,,,0.00,meteohub,2013-09-11 14:17:00,
2013-09-11 10:22:00,68.2,48.4,29.23,North,0,0.0,0.0,49,0.00,,,0.00,meteohub,2013-09-11 14:22:00,
2013-09-11 10:27:00,68.2,48.4,29.23,North,0,0.0,0.0,49,0.00,,,0.00,meteohub,2013-09-11 14:27:00,
2013-09-11 10:32:00,68.4,47.8,29.23,North,0,0.0,0.0,48,0.00,,,0.00,meteohub,2013-09-11 14:32:00,
2013-09-11 10:37:00,68.7,48.2,29.23,North,0,0.0,0.0,48,0.00,,,0.00,meteohub,2013-09-11 14:37:00,
2013-09-11 10:42:00,68.9,48.4,29.23,North,0,0.0,0.0,48,0.00,,,0.00,meteohub,2013-09-11 14:42:00,
2013-09-11 10:47:00,69.3,48.7,29.23,North,0,0.0,0.0,48,0.00,,,0.00,meteohub,2013-09-11 14:47:00,
2013-09-11 10:52:00,69.3,48.7,29.23,North,0,0.0,0.0,48,0.00,,,0.00,meteohub,2013-09-11 14:52:00,
2013-09-11 10:57:00,69.3,49.3,29.23,North,0,0.0,0.0,49,0.00,,,0.00,meteohub,2013-09-11 14:57:00,
2013-09-11 11:02:00,69.4,50.0,29.23,North,0,0.0,0.0,50,0.00,,,0.00,meteohub,2013-09-11 15:02:00,
2013-09-11 11:07:00,69.4,50.0,29.23,North,0,0.0,0.0,50,0.00,,,0.00,meteohub,2013-09-11 15:07:00,
2013-09-11 11:12:00,69.3,50.4,29.22,North,0,0.0,0.0,51,0.00,,,0.00,meteohub,2013-09-11 15:12:00,
2013-09-11 11:17:00,69.3,50.4,29.22,North,0,0.0,0.0,51,0.00,,,0.00,meteohub,2013-09-11 15:17:00,
2013-09-11 11:22:00,69.1,50.7,29.22,North,0,0.0,0.0,52,0.00,,,0.00,meteohub,2013-09-11 15:22:00,
2013-09-11 11:27:00,68.9,50.5,29.22,North,0,0.0,0.0,52,0.00,,,0.00,meteohub,2013-09-11 15:27:00,
2013-09-11 11:32:00,68.9,50.5,29.22,North,0,0.0,0.0,52,0.00,,,0.00,meteohub,2013-09-11 15:32:00,
2013-09-11 11:37:00,68.9,50.5,29.23,North,0,0.0,0.0,52,0.00,,,0.00,meteohub,2013-09-11 15:37:00,
2013-09-11 11:42:00,68.9,50.5,29.23,North,0,0.0,0.0,52,0.00,,,0.00,meteohub,2013-09-11 15:42:00,
2013-09-11 11:47:00,68.9,50.5,29.23,North,0,0.0,0.0,52,0.00,,,0.00,meteohub,2013-09-11 15:47:00,
2013-09-11 11:52:00,68.9,50.5,29.22,North,0,0.0,0.0,52,0.00,,,0.00,meteohub,2013-09-11 15:52:00,
2013-09-11 11:57:00,68.9,50.0,29.22,North,0,0.0,0.0,51,0.00,,,0.00,meteohub,2013-09-11 15:57:00,
2013-09-11 12:02:00,69.1,50.2,29.22,North,0,0.0,0.0,51,0.00,,,0.00,meteohub,2013-09-11 16:02:00,
2013-09-11 12:07:00,69.1,50.2,29.22,North,0,0.0,0.0,51,0.00,,,0.00,meteohub,2013-09-11 16:07:00,
2013-09-11 12:12:00,69.1,50.2,29.22,North,0,0.0,0.0,51,0.00,,,0.00,meteohub,2013-09-11 16:12:00,
2013-09-11 12:17:00,69.3,50.4,29.22,North,0,0.0,0.0,51,0.00,,,0.00,meteohub,2013-09-11 16:17:00,
2013-09-11 12:22:00,69.4,50.5,29.22,North,0,0.0,0.0,51,0.00,,,0.00,meteohub,2013-09-11 16:22:00,
2013-09-11 12:27:00,69.4,50.5,29.22,North,0,0.0,0.0,51,0.00,,,0.00,meteohub,2013-09-11 16:27:00,
2013-09-11 12:32:00,69.8,50.9,29.22,North,0,0.0,0.0,51,0.00,,,0.00,meteohub,2013-09-11 16:32:00,
2013-09-11 12:37:00,70.3,51.8,29.22,North,0,0.0,0.0,52,0.00,,,0.00,meteohub,2013-09-11 16:37:00,
2013-09-11 12:42:00,70.9,52.9,29.22,North,0,0.0,0.0,53,0.00,,,0.00,meteohub,2013-09-11 16:42:00,
2013-09-11 12:47:00,71.4,53.4,29.22,North,0,0.0,0.0,53,0.00,,,0.00,meteohub,2013-09-11 16:47:00,
2013-09-11 12:52:00,72.0,54.0,29.22,North,0,0.0,0.0,53,0.00,,,0.00,meteohub,2013-09-11 16:52:00,
2013-09-11 12:57:00,72.1,55.0,29.22,North,0,0.0,0.0,55,0.00,,,0.00,meteohub,2013-09-11 16:57:00,
2013-09-11 13:02:00,72.3,55.8,29.22,North,0,0.0,0.0,56,0.00,,,0.00,meteohub,2013-09-11 17:02:00,
2013-09-11 13:07:00,72.3,55.8,29.22,North,0,0.0,0.0,56,0.00,,,0.00,meteohub,2013-09-11 17:07:00,
2013-09-11 13:12:00,72.3,56.3,29.21,North,0,0.0,0.0,57,0.00,,,0.00,meteohub,2013-09-11 17:12:00,
2013-09-11 13:17:00,72.5,56.5,29.21,North,0,0.0,0.0,57,0.00,,,0.00,meteohub,2013-09-11 17:17:00,
2013-09-11 13:22:00,72.7,56.5,29.21,North,0,0.0,0.0,57,0.00,,,0.00,meteohub,2013-09-11 17:22:00,
2013-09-11 13:27:00,72.9,57.2,29.21,North,0,0.0,0.0,58,0.00,,,0.00,meteohub,2013-09-11 17:27:00,
2013-09-11 13:33:00,73.0,57.9,29.20,North,0,0.0,0.0,59,0.00,,,0.00,meteohub,2013-09-11 17:33:00,
2013-09-11 13:38:00,73.2,58.1,29.20,North,0,0.0,0.0,59,0.00,,,0.00,meteohub,2013-09-11 17:38:00,
2013-09-11 13:43:00,73.4,58.3,29.20,North,0,0.0,0.0,59,0.00,,,0.00,meteohub,2013-09-11 17:43:00,
2013-09-11 13:48:00,73.4,58.3,29.20,North,0,0.0,0.0,59,0.00,,,0.00,meteohub,2013-09-11 17:48:00,
2013-09-11 13:53:00,73.2,58.1,29.19,North,0,0.0,0.0,59,0.00,,,0.00,meteohub,2013-09-11 17:53:00,
2013-09-11 13:58:00,73.2,57.6,29.19,North,0,0.0,0.0,58,0.00,,,0.00,meteohub,2013-09-11 17:58:00,
2013-09-11 14:03:00,73.4,58.3,29.19,North,0,0.0,0.0,59,0.00,,,0.00,meteohub,2013-09-11 18:03:00,
2013-09-11 14:08:00,73.9,58.6,29.19,North,0,0.0,0.0,59,0.00,,,0.00,meteohub,2013-09-11 18:08:00,
2013-09-11 14:13:00,74.3,59.0,29.21,North,0,0.0,0.0,59,0.00,,,0.00,meteohub,2013-09-11 18:13:00,
2013-09-11 14:18:00,74.8,59.5,29.21,North,0,0.0,0.0,59,0.00,,,0.00,meteohub,2013-09-11 18:18:00,
2013-09-11 14:23:00,75.4,60.1,29.21,North,0,0.0,0.0,59,0.00,,,0.00,meteohub,2013-09-11 18:23:00,
2013-09-11 14:28:00,75.7,60.8,29.21,North,0,0.0,0.0,60,0.00,,,0.00,meteohub,2013-09-11 18:28:00,
2013-09-11 14:33:00,76.1,61.7,29.20,North,0,0.0,0.0,61,0.00,,,0.00,meteohub,2013-09-11 18:33:00,
2013-09-11 14:38:00,76.3,61.3,29.20,North,0,0.0,0.0,60,0.00,,,0.00,meteohub,2013-09-11 18:38:00,
2013-09-11 14:44:00,76.8,62.8,29.20,North,0,0.0,0.0,62,0.00,,,0.00,meteohub,2013-09-11 18:44:00,
2013-09-11 14:49:00,76.8,62.8,29.20,North,0,0.0,0.0,62,0.00,,,0.00,meteohub,2013-09-11 18:49:00,
2013-09-11 14:54:00,76.6,62.2,29.20,North,0,0.0,0.0,61,0.00,,,0.00,meteohub,2013-09-11 18:54:00,
2013-09-11 14:59:00,76.6,62.2,29.20,North,0,0.0,0.0,61,0.00,,,0.00,meteohub,2013-09-11 18:59:00,
2013-09-11 15:04:00,76.6,62.6,29.20,North,0,0.0,0.0,62,0.00,,,0.00,meteohub,2013-09-11 19:04:00,
2013-09-11 15:09:00,76.8,62.8,29.20,North,0,0.0,0.0,62,0.00,,,0.00,meteohub,2013-09-11 19:09:00,
2013-09-11 15:14:00,76.8,62.8,29.20,North,0,0.0,0.0,62,0.00,,,0.00,meteohub,2013-09-11 19:14:00,
2013-09-11 15:19:00,76.6,62.2,29.20,North,0,0.0,0.0,61,0.00,,,0.00,meteohub,2013-09-11 19:19:00,
2013-09-11 15:24:00,76.8,62.4,29.20,North,0,0.0,0.0,61,0.00,,,0.00,meteohub,2013-09-11 19:24:00,
2013-09-11 15:29:00,76.8,62.8,29.20,North,0,0.0,0.0,62,0.00,,,0.00,meteohub,2013-09-11 19:29:00,
2013-09-11 15:34:00,77.0,63.0,29.19,North,0,0.0,0.0,62,0.00,,,0.00,meteohub,2013-09-11 19:34:00,
2013-09-11 15:39:00,76.8,63.3,29.19,North,0,0.0,0.0,63,0.00,,,0.00,meteohub,2013-09-11 19:39:00,
2013-09-11 15:44:00,77.0,63.0,29.19,North,0,0.0,0.0,62,0.00,,,0.00,meteohub,2013-09-11 19:44:00,
2013-09-11 15:49:00,77.2,63.1,29.19,North,0,0.0,0.0,62,0.00,,,0.00,meteohub,2013-09-11 19:49:00,
2013-09-11 15:54:00,77.4,63.3,29.18,North,0,0.0,0.0,62,0.00,,,0.00,meteohub,2013-09-11 19:54:00,
2013-09-11 15:59:00,77.4,63.9,29.18,North,0,0.0,0.0,63,0.00,,,0.00,meteohub,2013-09-11 19:59:00,
2013-09-11 16:04:00,77.5,63.9,29.18,North,0,0.0,0.0,63,0.00,,,0.00,meteohub,2013-09-11 20:04:00,
2013-09-11 16:09:00,77.5,63.9,29.18,North,0,0.0,0.0,63,0.00,,,0.00,meteohub,2013-09-11 20:09:00,
2013-09-11 16:14:00,77.9,64.2,29.19,North,0,0.0,0.0,63,0.00,,,0.00,meteohub,2013-09-11 20:14:00,
2013-09-11 16:19:00,77.9,64.8,29.19,North,0,0.0,0.0,64,0.00,,,0.00,meteohub,2013-09-11 20:19:00,
2013-09-11 16:24:00,78.3,64.6,29.19,North,0,0.0,0.0,63,0.00,,,0.00,meteohub,2013-09-11 20:24:00,
2013-09-11 16:29:00,77.9,64.8,29.19,North,0,0.0,0.0,64,0.00,,,0.00,meteohub,2013-09-11 20:29:00,
2013-09-11 16:35:00,77.5,63.9,29.20,North,0,0.0,0.0,63,0.00,,,0.00,meteohub,2013-09-11 20:35:00,
2013-09-11 16:40:00,77.9,64.2,29.20,North,0,0.0,0.0,63,0.00,,,0.00,meteohub,2013-09-11 20:40:00,
2013-09-11 16:45:00,77.2,63.7,29.20,North,0,0.0,0.0,63,0.00,,,0.00,meteohub,2013-09-11 20:45:00,
2013-09-11 16:50:00,76.8,62.8,29.20,North,0,0.0,0.0,62,0.00,,,0.00,meteohub,2013-09-11 20:50:00,
2013-09-11 16:55:00,77.2,63.1,29.21,North,0,0.0,0.0,62,0.00,,,0.00,meteohub,2013-09-11 20:55:00,
2013-09-11 17:00:00,77.5,63.9,29.21,North,0,0.0,0.0,63,0.00,,,0.00,meteohub,2013-09-11 21:00:00,
2013-09-11 17:05:00,77.7,64.0,29.21,North,0,0.0,0.0,63,0.00,,,0.00,meteohub,2013-09-11 21:05:00,
2013-09-11 17:10:00,77.5,63.9,29.21,North,0,0.0,0.0,63,0.00,,,0.00,meteohub,2013-09-11 21:10:00,
2013-09-11 17:15:00,77.9,64.2,29.18,North,0,0.0,0.0,63,0.00,,,0.00,meteohub,2013-09-11 21:15:00,
2013-09-11 17:20:00,77.9,63.9,29.18,North,0,0.0,0.0,62,0.00,,,0.00,meteohub,2013-09-11 21:20:00,
2013-09-11 17:25:00,77.7,64.0,29.18,North,0,0.0,0.0,63,0.00,,,0.00,meteohub,2013-09-11 21:25:00,
2013-09-11 17:30:00,77.9,64.2,29.18,North,0,0.0,0.0,63,0.00,,,0.00,meteohub,2013-09-11 21:30:00,
2013-09-11 17:35:00,77.7,64.0,29.18,North,0,0.0,0.0,63,0.00,,,0.00,meteohub,2013-09-11 21:35:00,
2013-09-11 17:40:00,77.9,64.2,29.18,North,0,0.0,0.0,63,0.00,,,0.00,meteohub,2013-09-11 21:40:00,
2013-09-11 17:45:00,77.9,64.8,29.18,North,0,0.0,0.0,64,0.00,,,0.00,meteohub,2013-09-11 21:45:00,
2013-09-11 17:50:00,77.5,63.9,29.18,North,0,0.0,0.0,63,0.00,,,0.00,meteohub,2013-09-11 21:50:00,
2013-09-11 17:55:00,77.5,63.9,29.19,North,0,0.0,0.0,63,0.00,,,0.00,meteohub,2013-09-11 21:55:00,
2013-09-11 18:00:00,77.9,64.2,29.19,North,0,0.0,0.0,63,0.00,,,0.00,meteohub,2013-09-11 22:00:00,
2013-09-11 18:05:00,77.9,64.8,29.19,North,0,0.0,0.0,64,0.00,,,0.00,meteohub,2013-09-11 22:05:00,
2013-09-11 18:10:00,77.9,64.8,29.19,North,0,0.0,0.0,64,0.00,,,0.00,meteohub,2013-09-11 22:10:00,
2013-09-11 18:15:00,77.7,64.0,29.20,North,0,0.0,0.0,63,0.00,,,0.00,meteohub,2013-09-11 22:15:00,
2013-09-11 18:20:00,77.9,64.2,29.20,North,0,0.0,0.0,63,0.00,,,0.00,meteohub,2013-09-11 22:20:00,
2013-09-11 18:25:00,77.5,63.9,29.20,North,0,0.0,0.0,63,0.00,,,0.00,meteohub,2013-09-11 22:25:00,
2013-09-11 18:30:00,77.7,64.0,29.20,North,0,0.0,0.0,63,0.00,,,0.00,meteohub,2013-09-11 22:30:00,
2013-09-11 18:35:00,77.7,64.0,29.20,North,0,0.0,0.0,63,0.00,,,0.00,meteohub,2013-09-11 22:35:00,
2013-09-11 18:40:00,77.2,63.7,29.20,North,0,0.0,0.0,63,0.00,,,0.00,meteohub,2013-09-11 22:40:00,
2013-09-11 18:45:00,76.3,62.8,29.20,North,0,0.0,0.0,63,0.00,,,0.00,meteohub,2013-09-11 22:45:00,
2013-09-11 18:50:00,75.7,62.2,29.20,North,0,0.0,0.0,63,0.00,,,0.00,meteohub,2013-09-11 22:50:00,
2013-09-11 18:56:00,75.2,61.7,29.20,North,0,0.0,0.0,63,0.00,,,0.00,meteohub,2013-09-11 22:56:00,
2013-09-11 19:01:00,74.8,61.3,29.20,North,0,0.0,0.0,63,0.00,,,0.00,meteohub,2013-09-11 23:01:00,
2013-09-11 19:06:00,74.7,60.8,29.20,North,0,0.0,0.0,62,0.00,,,0.00,meteohub,2013-09-11 23:06:00,
2013-09-11 19:11:00,74.5,60.6,29.20,North,0,0.0,0.0,62,0.00,,,0.00,meteohub,2013-09-11 23:11:00,
2013-09-11 19:16:00,74.1,60.3,29.19,North,0,0.0,0.0,62,0.00,,,0.00,meteohub,2013-09-11 23:16:00,
2013-09-11 19:21:00,73.8,59.9,29.19,North,0,0.0,0.0,62,0.00,,,0.00,meteohub,2013-09-11 23:21:00,
2013-09-11 19:26:00,73.2,59.4,29.19,North,0,0.0,0.0,62,0.00,,,0.00,meteohub,2013-09-11 23:26:00,
2013-09-11 19:31:00,73.0,59.2,29.19,North,0,0.0,0.0,62,0.00,,,0.00,meteohub,2013-09-11 23:31:00,
2013-09-11 19:36:00,72.7,58.8,29.18,North,0,0.0,0.0,62,0.00,,,0.00,meteohub,2013-09-11 23:36:00,
2013-09-11 19:41:00,72.3,58.6,29.18,North,0,0.0,0.0,62,0.00,,,0.00,meteohub,2013-09-11 23:41:00,
2013-09-11 19:46:00,72.0,58.3,29.18,North,0,0.0,0.0,62,0.00,,,0.00,meteohub,2013-09-11 23:46:00,
2013-09-11 19:51:00,71.8,58.1,29.18,North,0,0.0,0.0,62,0.00,,,0.00,meteohub,2013-09-11 23:51:00,
2013-09-11 19:56:00,71.4,57.7,29.17,North,0,0.0,0.0,62,0.00,,,0.00,meteohub,2013-09-11 23:56:00,
2013-09-11 20:01:00,71.1,56.8,29.17,North,0,0.0,0.0,61,0.00,,,0.00,meteohub,2013-09-12 00:01:00,
2013-09-11 20:06:00,70.7,56.7,29.17,North,0,0.0,0.0,61,0.00,,,0.00,meteohub,2013-09-12 00:06:00,
2013-09-11 20:11:00,70.3,56.3,29.17,North,0,0.0,0.0,61,0.00,,,0.00,meteohub,2013-09-12 00:11:00,
2013-09-11 20:16:00,70.0,55.9,29.18,North,0,0.0,0.0,61,0.00,,,0.00,meteohub,2013-09-12 00:16:00,
2013-09-11 20:21:00,69.6,55.6,29.18,North,0,0.0,0.0,61,0.00,,,0.00,meteohub,2013-09-12 00:21:00,
2013-09-11 20:26:00,69.3,55.2,29.18,North,0,0.0,0.0,61,0.00,,,0.00,meteohub,2013-09-12 00:26:00,
2013-09-11 20:31:00,69.1,54.7,29.18,North,0,0.0,0.0,60,0.00,,,0.00,meteohub,2013-09-12 00:31:00,
2013-09-11 20:36:00,68.9,54.5,29.17,North,0,0.0,0.0,60,0.00,,,0.00,meteohub,2013-09-12 00:36:00,
2013-09-11 20:41:00,68.5,54.1,29.17,North,0,0.0,0.0,60,0.00,,,0.00,meteohub,2013-09-12 00:41:00,
2013-09-11 20:46:00,68.2,53.8,29.17,North,0,0.0,0.0,60,0.00,,,0.00,meteohub,2013-09-12 00:46:00,
2013-09-11 20:51:00,68.2,53.8,29.17,North,0,0.0,0.0,60,0.00,,,0.00,meteohub,2013-09-12 00:51:00,
2013-09-11 20:56:00,68.0,53.6,29.18,North,0,0.0,0.0,60,0.00,,,0.00,meteohub,2013-09-12 00:56:00,
2013-09-11 21:01:00,67.8,52.9,29.18,North,0,0.0,0.0,59,0.00,,,0.00,meteohub,2013-09-12 01:01:00,
2013-09-11 21:07:00,67.8,52.9,29.18,North,0,0.0,0.0,59,0.00,,,0.00,meteohub,2013-09-12 01:07:00,
2013-09-11 21:12:00,67.8,52.9,29.18,North,0,0.0,0.0,59,0.00,,,0.00,meteohub,2013-09-12 01:12:00,
2013-09-11 21:17:00,67.6,52.9,29.18,North,0,0.0,0.0,59,0.00,,,0.00,meteohub,2013-09-12 01:17:00,
2013-09-11 21:22:00,67.6,52.9,29.18,North,0,0.0,0.0,59,0.00,,,0.00,meteohub,2013-09-12 01:22:00,
2013-09-11 21:27:00,67.6,52.3,29.18,North,0,0.0,0.0,58,0.00,,,0.00,meteohub,2013-09-12 01:27:00,
2013-09-11 21:31:00,67.6,52.3,29.18,North,0,0.0,0.0,58,0.00,,,0.00,meteohub,2013-09-12 01:31:00,
2013-09-11 21:37:00,67.6,52.3,29.17,North,0,0.0,0.0,58,0.00,,,0.00,meteohub,2013-09-12 01:37:00,
2013-09-11 21:42:00,67.5,52.2,29.17,North,0,0.0,0.0,58,0.00,,,0.00,meteohub,2013-09-12 01:42:00,
2013-09-11 21:46:00,67.5,52.2,29.17,North,0,0.0,0.0,58,0.00,,,0.00,meteohub,2013-09-12 01:46:00,
2013-09-11 21:52:00,67.5,52.2,29.17,North,0,0.0,0.0,58,0.00,,,0.00,meteohub,2013-09-12 01:52:00,
2013-09-11 21:57:00,67.5,52.2,29.17,North,0,0.0,0.0,58,0.00,,,0.00,meteohub,2013-09-12 01:57:00,
2013-09-11 22:02:00,67.3,52.0,29.17,North,0,0.0,0.0,58,0.00,,,0.00,meteohub,2013-09-12 02:02:00,
2013-09-11 22:07:00,67.1,51.8,29.17,North,0,0.0,0.0,58,0.00,,,0.00,meteohub,2013-09-12 02:07:00,
2013-09-11 22:12:00,67.1,51.8,29.17,North,0,0.0,0.0,58,0.00,,,0.00,meteohub,2013-09-12 02:12:00,
2013-09-11 22:17:00,67.1,51.8,29.16,North,0,0.0,0.0,58,0.00,,,0.00,meteohub,2013-09-12 02:17:00,
2013-09-11 22:22:00,67.1,51.8,29.16,North,0,0.0,0.0,58,0.00,,,0.00,meteohub,2013-09-12 02:22:00,
2013-09-11 22:27:00,66.9,51.6,29.16,North,0,0.0,0.0,58,0.00,,,0.00,meteohub,2013-09-12 02:27:00,
2013-09-11 22:32:00,66.9,51.6,29.16,North,0,0.0,0.0,58,0.00,,,0.00,meteohub,2013-09-12 02:32:00,
2013-09-11 22:37:00,66.9,51.3,29.15,North,0,0.0,0.0,57,0.00,,,0.00,meteohub,2013-09-12 02:37:00,
2013-09-11 22:42:00,67.1,51.4,29.15,North,0,0.0,0.0,57,0.00,,,0.00,meteohub,2013-09-12 02:42:00,
2013-09-11 22:47:00,67.1,51.4,29.15,North,0,0.0,0.0,57,0.00,,,0.00,meteohub,2013-09-12 02:47:00,
2013-09-11 22:52:00,67.1,51.4,29.15,North,0,0.0,0.0,57,0.00,,,0.00,meteohub,2013-09-12 02:52:00,
2013-09-11 22:57:00,67.3,51.1,29.16,North,0,0.0,0.0,56,0.00,,,0.00,meteohub,2013-09-12 02:57:00,
2013-09-11 23:02:00,67.3,51.1,29.16,North,0,0.0,0.0,56,0.00,,,0.00,meteohub,2013-09-12 03:02:00,
2013-09-11 23:07:00,67.1,51.4,29.16,North,0,0.0,0.0,57,0.00,,,0.00,meteohub,2013-09-12 03:07:00,
2013-09-11 23:12:00,67.1,51.4,29.16,North,0,0.0,0.0,57,0.00,,,0.00,meteohub,2013-09-12 03:12:00,
2013-09-11 23:17:00,67.3,51.1,29.17,North,0,0.0,0.0,56,0.00,,,0.00,meteohub,2013-09-12 03:17:00,
2013-09-11 23:22:00,67.3,51.1,29.17,North,0,0.0,0.0,56,0.00,,,0.00,meteohub,2013-09-12 03:22:00,
2013-09-11 23:27:00,67.5,51.3,29.17,North,0,0.0,0.0,56,0.00,,,0.00,meteohub,2013-09-12 03:27:00,
2013-09-11 23:32:00,67.5,51.3,29.17,North,0,0.0,0.0,56,0.00,,,0.00,meteohub,2013-09-12 03:32:00,
2013-09-11 23:37:00,67.5,51.3,29.16,North,0,0.0,0.0,56,0.00,,,0.00,meteohub,2013-09-12 03:37:00,
2013-09-11 23:42:00,67.6,51.4,29.16,North,0,0.0,0.0,56,0.00,,,0.00,meteohub,2013-09-12 03:42:00,
2013-09-11 23:47:00,67.6,50.9,29.16,North,0,0.0,0.0,55,0.00,,,0.00,meteohub,2013-09-12 03:47:00,
2013-09-11 23:52:00,67.8,51.1,29.16,North,0,0.0,0.0,55,0.00,,,0.00,meteohub,2013-09-12 03:52:00,
2013-09-11 23:57:00,67.8,51.6,29.17,North,0,0.0,0.0,56,0.00,,,0.00,meteohub,2013-09-12 03:57:00,